Prestwick, United Kingdom

5:23 PM BST on May 22, 2017 (GMT +0100)
Prestwick

Weather History for EGPK - August, 2014

Change the Weather History Date:

Sunday, August 10, 2014

  Actual Average Record
Temperature  
Mean Temperature 56 °F -  
Max Temperature 59 °F 63 °F 82 °F (1997)
Min Temperature 53 °F 50 °F 44 °F (1999)
Degree Days  
Heating Degree Days 9    
Growing Degree Days 6 (Base 50)    
Moisture  
Dew Point 54 °F    
Average Humidity 91    
Maximum Humidity 94    
Minimum Humidity 82    
Precipitation  
Precipitation 0.00 in - - ()
Sea Level Pressure  
Sea Level Pressure 29.41 in    
Wind  
Wind Speed 5 mph ()    
Max Wind Speed 26 mph    
Max Gust Speed -    
Visibility 5.7 miles    
Events Rain    
Averages and records for this station are not official NWS values.
T = Trace of Precipitation, MM = Missing Value Source: Averaged Metar Reports

Daily Weather History Graph

Daily Weather History Graph

Search for Another Location

Airport or City:

Trip Planner

Search our weather history database for the weather conditions in past years. The results will help you decide how hot, cold, wet, or windy it might be!

Date:

Astronomy

Aug. 10, 2014 Rise Set
Actual Time 5:41 AM BST 9:04 PM BST
Civil Twilight 4:56 AM BST 9:48 PM BST
Nautical Twilight 3:55 AM BST 10:48 PM BST
Astronomical Twilight 2:16 AM BST 12:23 AM BST
Moon 8:27 PM BST (8/10) 5:23 AM BST (8/10)
Length of Visible Light 16h 51m
Length of Day
15h 23m
Full, 100% of the Moon is Illuminated
Aug 10
Full
Aug 10
Full
Aug 17
Last Quarter
Aug 25
New
Sep 2
First Quarter

Hourly Weather History & Observations

Time (BST) Temp. Dew Point Humidity Pressure Visibility Wind Dir Wind Speed Gust Speed Precip Events Conditions
12:20 AM 55.4 °F 51.8 °F 88% 29.59 in 6.2 mi SE 3.5 mph - N/A   Partly Cloudy
12:50 AM 55.4 °F 50.0 °F 82% 29.59 in 6.2 mi Calm Calm - N/A   Scattered Clouds
1:50 AM 53.6 °F 48.2 °F 82% 29.59 in 6.2 mi ESE 3.5 mph - N/A   Partly Cloudy
2:50 AM 53.6 °F 50.0 °F 88% 29.56 in 6.2 mi ESE 2.3 mph - N/A   Partly Cloudy
3:50 AM 53.6 °F 51.8 °F 94% 29.53 in 6.2 mi Calm Calm - N/A   Partly Cloudy
4:20 AM 55.4 °F 51.8 °F 88% 29.53 in 6.2 mi ESE 3.5 mph - N/A Rain Light Rain Showers
4:50 AM 55.4 °F 53.6 °F 94% 29.53 in 4.3 mi ESE 2.3 mph - N/A Rain Rain
5:50 AM 55.4 °F 53.6 °F 94% 29.50 in 4.3 mi Calm Calm - N/A Rain Rain
6:50 AM 55.4 °F 53.6 °F 94% 29.50 in 4.3 mi Calm Calm - N/A Rain Light Rain
7:20 AM 55.4 °F 53.6 °F 94% 29.50 in 4.3 mi Calm Calm - N/A Rain Light Rain
7:50 AM 55.4 °F 53.6 °F 94% 29.50 in 4.3 mi Calm Calm - N/A Rain Light Rain
8:20 AM 55.4 °F 53.6 °F 94% 29.47 in 3.7 mi Calm Calm - N/A Rain Rain
8:50 AM 55.4 °F 53.6 °F 94% 29.47 in 3.7 mi Calm Calm - N/A Rain Light Rain
9:20 AM 57.2 °F 53.6 °F 88% 29.47 in 4.3 mi Calm Calm - N/A Rain Light Rain
9:50 AM 57.2 °F 55.4 °F 94% 29.44 in 4.3 mi East 2.3 mph - N/A Rain Rain
10:20 AM 57.2 °F 55.4 °F 94% 29.44 in 4.3 mi ENE 3.5 mph - N/A Rain Rain
10:50 AM 57.2 °F 53.6 °F 88% 29.42 in 6.2 mi ENE 2.3 mph - N/A Rain Light Rain
11:20 AM 57.2 °F 53.6 °F 88% 29.42 in 6.2 mi ENE 2.3 mph - N/A Rain Light Rain
11:50 AM 57.2 °F 53.6 °F 88% 29.42 in 6.2 mi NE 2.3 mph - N/A Rain Light Rain
12:20 PM 57.2 °F 53.6 °F 88% 29.39 in 6.2 mi NE 3.5 mph - N/A Rain Light Rain
12:50 PM 57.2 °F 53.6 °F 88% 29.39 in 6.2 mi NNE 4.6 mph - N/A Rain Light Rain
1:20 PM 57.2 °F 53.6 °F 88% 29.36 in 6.2 mi NNE 9.2 mph - N/A Rain Light Rain
1:50 PM 57.2 °F 53.6 °F 88% 29.36 in 6.2 mi NNE 5.8 mph - N/A Rain Light Rain
2:20 PM 59.0 °F 55.4 °F 88% 29.36 in 6.2 mi NNE 4.6 mph - N/A Rain Light Rain
2:50 PM 59.0 °F 55.4 °F 88% 29.36 in 6.2 mi NNE 3.5 mph - N/A Rain Light Rain
3:20 PM 59.0 °F 55.4 °F 88% 29.33 in 6.2 mi NNE 5.8 mph - N/A Rain Light Rain
3:50 PM 59.0 °F 55.4 °F 88% 29.33 in 6.2 mi North 6.9 mph - N/A Rain Light Rain
4:20 PM 57.2 °F 55.4 °F 94% 29.33 in 6.2 mi North 6.9 mph - N/A Rain Light Rain
4:50 PM 57.2 °F 55.4 °F 94% 29.33 in 6.2 mi North 6.9 mph - N/A Rain Light Rain
5:20 PM 57.2 °F 55.4 °F 94% 29.30 in 6.2 mi North 6.9 mph - N/A Rain Light Rain
5:50 PM 57.2 °F 55.4 °F 94% 29.30 in 6.2 mi NNW 6.9 mph - N/A Rain Light Rain
6:20 PM 57.2 °F 55.4 °F 94% 29.30 in 6.2 mi NW 8.1 mph - N/A Rain Light Rain
6:50 PM 57.2 °F 55.4 °F 94% 29.30 in 6.2 mi NW 9.2 mph - N/A Rain Light Rain
7:20 PM 57.2 °F 55.4 °F 94% 29.30 in 6.2 mi NW 10.4 mph - N/A Rain Light Rain
7:50 PM 57.2 °F 55.4 °F 94% 29.30 in 6.2 mi NW 12.7 mph - N/A Rain Light Rain
8:20 PM 55.4 °F 53.6 °F 94% 29.33 in 6.2 mi NW 15.0 mph - N/A Rain Light Rain
8:50 PM 55.4 °F 53.6 °F 94% 29.33 in 6.2 mi NW 18.4 mph - N/A Rain Light Rain
9:20 PM 55.4 °F 53.6 °F 94% 29.33 in 6.2 mi NW 16.1 mph - N/A Rain Light Rain
9:50 PM 55.4 °F 53.6 °F 94% 29.36 in 6.2 mi NW 18.4 mph - N/A Rain Light Rain
10:20 PM 55.4 °F 53.6 °F 94% 29.36 in 6.2 mi WNW 23.0 mph - N/A Rain Light Rain
10:50 PM 55.4 °F 51.8 °F 88% 29.36 in 6.2 mi WNW 24.2 mph - N/A Rain Light Rain
11:20 PM 55.4 °F 51.8 °F 88% 29.36 in 6.2 mi WNW 24.2 mph - N/A Rain Light Rain
11:50 PM 55.4 °F 51.8 °F 88% 29.36 in 6.2 mi WNW 26.5 mph - N/A   Scattered Clouds